La Foux, France

4:15 PM CEST on May 23, 2017 (GMT +0200)
La Foux

Weather History for 07684 - January, 2014

Change the Weather History Date:

Saturday, January 4, 2014

  Actual Average Record
Temperature  
Mean Temperature 53 °F -  
Max Temperature 57 °F 52 °F - ()
Min Temperature 49 °F 39 °F - ()
Degree Days  
Heating Degree Days 12    
Growing Degree Days 3 (Base 50)    
Moisture  
Dew Point 51 °F    
Average Humidity 92    
Maximum Humidity 100    
Minimum Humidity 80    
Precipitation  
Precipitation 0.47 in - - ()
Sea Level Pressure  
Sea Level Pressure 29.89 in    
Wind  
Wind Speed 3 mph ()    
Max Wind Speed 14 mph    
Max Gust Speed 25 mph    
Visibility 3.8 miles    
Events Rain , Thunderstorm    
T = Trace of Precipitation, MM = Missing Value Source: Averaged Metar Reports

Daily Weather History Graph

Daily Weather History Graph

Search for Another Location

Airport or City:

Trip Planner

Search our weather history database for the weather conditions in past years. The results will help you decide how hot, cold, wet, or windy it might be!

Date:

Astronomy

Jan. 04, 2014 Rise Set
Actual Time 8:05 AM CET 5:09 PM CET
Civil Twilight 7:32 AM CET 5:41 PM CET
Nautical Twilight 6:56 AM CET 6:17 PM CET
Astronomical Twilight 6:22 AM CET 6:52 PM CET
Moon 9:53 AM CET (1/4) 9:17 PM CET (1/4)
Length of Visible Light 10h 08m
Length of Day
9h 03m
Waxing Crescent, 13% of the Moon is Illuminated
Jan 4
Waxing Crescent
Jan 8
First Quarter
Jan 16
Full
Jan 24
Last Quarter
Jan 30
New

Hourly Weather History & Observations

Time (CET) Temp. Dew Point Humidity Pressure Visibility Wind Dir Wind Speed Gust Speed Precip Events Conditions
12:00 AM 51 °F 48 °F 86% 30.12 in 4 mi North 2.3 mph - - Rain Light Drizzle
12:00 AM 50.0 °F 48.2 °F 94% 30.09 in 4.3 mi Variable 2.3 mph - N/A   Light Drizzle
12:30 AM 50.0 °F 48.2 °F 94% 30.09 in - Variable 2.3 mph - N/A   Light Drizzle
1:00 AM 50 °F 48 °F 91% 30.10 in 3 mi NNE 2.3 mph - - Rain Drizzle
1:00 AM 50.0 °F 48.2 °F 94% 30.09 in - Variable 2.3 mph - N/A   Drizzle
1:30 AM 50.0 °F 48.2 °F 94% 30.09 in - Variable 2.3 mph - N/A Rain Light Rain
2:00 AM 50 °F 49 °F 93% 30.09 in 2 mi North 2.3 mph - - Rain Light Drizzle
2:00 AM 50.0 °F 48.2 °F 94% 30.06 in 2.2 mi Variable 2.3 mph - N/A   Light Drizzle
2:30 AM 50.0 °F 48.2 °F 94% 30.06 in 1.7 mi Variable 2.3 mph - N/A Rain Light Rain
3:00 AM 50 °F 48 °F 92% 30.08 in 2 mi North 3.5 mph - - Rain Drizzle
3:00 AM 50.0 °F 48.2 °F 94% 30.06 in 2.5 mi Variable 3.5 mph - N/A   Drizzle
3:30 AM 50.0 °F 48.2 °F 94% 30.06 in 1.2 mi Variable 3.5 mph - N/A   Light Drizzle
4:00 AM 50 °F 49 °F 96% 30.07 in 1 mi North 2.3 mph - - Rain Drizzle
4:00 AM 50.0 °F 50.0 °F 100% 30.06 in 1.4 mi Variable 2.3 mph - N/A   Drizzle
4:30 AM 50.0 °F 50.0 °F 100% 30.04 in 1.4 mi Variable 3.5 mph - N/A Rain Light Rain
5:00 AM 51 °F 50 °F 93% 30.05 in 2 mi NNW 2.3 mph - - Rain Light Rain
5:00 AM 50.0 °F 50.0 °F 100% 30.04 in 1.7 mi Variable 2.3 mph - N/A Rain Light Rain
5:30 AM 50.0 °F 50.0 °F 100% 30.04 in 3.1 mi Variable 3.5 mph - N/A Rain Light Rain
6:00 AM 51 °F 49 °F 92% 30.04 in 1 mi NNE 2.3 mph - - Rain Rain
6:00 AM 50.0 °F 50.0 °F 100% 30.01 in 1.4 mi Variable 2.3 mph - N/A Rain Rain
6:30 AM 51.8 °F 50.0 °F 94% 30.01 in 1.8 mi Variable 1.2 mph - N/A Rain Light Rain
7:00 AM 51 °F 49 °F 92% 30.02 in 2 mi NNE 1.2 mph - - Rain Light Rain
7:00 AM 51.8 °F 50.0 °F 94% 30.01 in 1.7 mi Variable 1.2 mph - N/A Rain Light Rain
7:30 AM 50.0 °F 50.0 °F 100% 30.01 in 2.2 mi Variable 2.3 mph - N/A Rain Light Rain
8:00 AM 51 °F 49 °F 92% 30.01 in 3 mi NNE 3.5 mph - - Rain Light Rain
8:00 AM 51.8 °F 50.0 °F 94% 30.01 in - NNE 3.5 mph - N/A Rain Light Rain
8:30 AM 51.8 °F 50.0 °F 94% 30.01 in 2.5 mi Variable 2.3 mph - N/A   Drizzle
9:00 AM 52 °F 51 °F 93% 30.00 in 3 mi North 2.3 mph - - Rain Light Rain
9:00 AM 51.8 °F 50.0 °F 94% 29.98 in - Variable 2.3 mph - N/A Rain Light Rain
9:30 AM 51.8 °F 50.0 °F 94% 29.98 in 4.3 mi Variable 2.3 mph - N/A Rain Light Rain
10:00 AM 52 °F 51 °F 95% 29.98 in 2 mi NNW 3.5 mph - - Rain Light Rain
10:00 AM 51.8 °F 51.8 °F 100% 29.98 in - Variable 3.5 mph - N/A Rain Light Rain
10:30 AM 53.6 °F 51.8 °F 94% 29.98 in 2.2 mi Variable 2.3 mph - N/A Rain Rain
11:00 AM 53 °F 51 °F 91% 29.96 in 9 mi North 3.5 mph - - Rain Light Rain
11:00 AM 53.6 °F 51.8 °F 94% 29.95 in 6.2 mi Variable 3.5 mph - N/A Rain Light Rain
11:30 AM 53.6 °F 51.8 °F 94% 29.95 in 0.9 mi North 4.6 mph - N/A Rain Rain
12:00 PM 53 °F 52 °F 93% 29.92 in 2 mi NNE 2.3 mph - - Rain Light Rain
12:00 PM 53.6 °F 51.8 °F 94% 29.89 in - Variable 2.3 mph - N/A Rain Light Rain
12:30 PM 53.6 °F 51.8 °F 94% 29.89 in 1.5 mi Variable 3.5 mph - N/A Rain Heavy Rain
1:00 PM 53 °F 52 °F 93% 29.87 in 2 mi ENE 2.3 mph - - Rain Rain
1:00 PM 53.6 °F 51.8 °F 94% 29.86 in - Variable 2.3 mph - N/A Rain Rain
1:30 PM 53.6 °F 51.8 °F 94% 29.83 in 5.6 mi Variable 1.2 mph - N/A Rain Light Rain
2:00 PM 56 °F 54 °F 91% 29.81 in 3 mi South 11.5 mph - - Rain Rain
2:00 PM 57.2 °F 55.4 °F 94% 29.80 in 1.6 mi South 11.5 mph - N/A Rain Rain
2:30 PM 57.2 °F 53.6 °F 88% 29.77 in 1.7 mi SSW 8.1 mph - N/A Rain Rain
3:00 PM 57 °F 54 °F 88% 29.75 in 2 mi South 6.9 mph - - Rain Rain
3:00 PM 57.2 °F 53.6 °F 88% 29.74 in 5.6 mi South 6.9 mph - N/A Rain Rain
3:30 PM 57.2 °F 55.4 °F 94% 29.74 in 6.2 mi SSW 8.1 mph - N/A   Mostly Cloudy
4:00 PM 57 °F 54 °F 85% 29.76 in 25 mi SSW 4.6 mph - -   Clear
4:00 PM 57.2 °F 53.6 °F 88% 29.74 in 6.2 mi SSW 4.6 mph - N/A   Overcast
4:30 PM 57.2 °F 53.6 °F 88% 29.74 in 6.2 mi SSW 4.6 mph - N/A   Overcast
5:00 PM 58 °F 54 °F 81% 29.77 in 16 mi SSW 4.6 mph - -   Clear
5:00 PM 57.2 °F 53.6 °F 88% 29.74 in 6.2 mi SSW 4.6 mph - N/A   Overcast
5:30 PM 57.2 °F 53.6 °F 88% 29.74 in 6.2 mi Calm Calm - N/A   Overcast
6:00 PM 57 °F 54 °F 84% 29.76 in 14 mi SSE 1.2 mph - -   Clear
6:00 PM 57.2 °F 53.6 °F 88% 29.74 in 6.2 mi Variable 1.2 mph - N/A   Mostly Cloudy
6:30 PM 57.2 °F 53.6 °F 88% 29.74 in 6.2 mi ENE 2.3 mph - N/A   Mostly Cloudy
7:00 PM 56 °F 53 °F 86% 29.73 in 7 mi NNW 1.2 mph - -   Clear
7:00 PM 55.4 °F 53.6 °F 94% 29.71 in 6.2 mi Variable 1.2 mph - N/A   Overcast
7:30 PM 55.4 °F 53.6 °F 94% 29.71 in 3.7 mi Variable 2.3 mph - N/A   Overcast
8:00 PM 55 °F 53 °F 92% 29.72 in 2 mi NNE 1.2 mph - - Rain Light Rain
8:00 PM 55.4 °F 53.6 °F 94% 29.71 in - Variable 1.2 mph - N/A Rain Light Rain
8:30 PM 55.4 °F 53.6 °F 94% 29.68 in - Variable 3.5 mph - N/A Rain Light Rain
9:00 PM 54 °F 53 °F 95% 29.70 in 2 mi NE 3.5 mph - -   Mist
9:00 PM 55.4 °F 53.6 °F 94% 29.68 in - Variable 3.5 mph - N/A   Overcast
9:30 PM 55.4 °F 53.6 °F 94% 29.71 in 3.7 mi Calm Calm - N/A   Overcast
10:00 PM 57 °F 53 °F 80% 29.68 in 14 mi SW 2.3 mph - -   Clear
10:00 PM 57.2 °F 51.8 °F 82% 29.65 in 6.2 mi Variable 2.3 mph - N/A   Mostly Cloudy
10:30 PM 57.2 °F 51.8 °F 82% 29.65 in 6.2 mi Calm Calm - N/A Rain Rain
11:00 PM 55 °F 53 °F 90% 29.64 in 1 mi WNW 2.3 mph - - Rain Rain
11:00 PM 55.4 °F 53.6 °F 94% 29.62 in 3.1 mi Variable 2.3 mph - N/A Rain , Thunderstorm Thunderstorms and Rain
11:30 PM 55.4 °F 51.8 °F 88% 29.62 in 0.6 mi West 13.8 mph 25.3 mph N/A Rain , Thunderstorm Heavy Thunderstorms and Rain